GW2684 Weather Reports


time (UTC)temp
C
wind
direction
speed
KPH
gust
KPH
rain 1hr
cm
rain 24hr
cm
rain mn
cm
humidity
%
barometer
mb
20260504000055 23 305 1.6 8.0 0.00 0.03 0.03 40 1017.5
20260503235536 23 30 0.0 9.7 0.00 0.03 0.03 39 1017.5
20260503235036 23 0 3.2 9.7 0.00 0.03 0.03 38 1017.4
20260503234546 23 347 3.2 9.7 0.00 0.03 0.03 37 1017.5
20260503234038 23 24 3.2 9.7 0.00 0.03 0.03 39 1017.5
20260503233536 23 314 4.8 16.1 0.00 0.03 0.03 37 1017.6
20260503233056 23 345 8.0 16.1 0.00 0.03 0.03 37 1017.4
20260503232537 23 345 4.8 14.5 0.00 0.03 0.03 38 1017.5
20260503232037 23 29 4.8 14.5 0.00 0.03 0.03 37 1017.5
20260503231555 23 27 1.6 11.3 0.00 0.03 0.03 37 1017.5
20260503231034 23 28 3.2 11.3 0.00 0.03 0.03 35 1017.6
20260503230536 24 47 4.8 16.1 0.00 0.03 0.03 34 1017.6
20260503230047 24 26 4.8 16.1 0.00 0.03 0.03 35 1017.6
20260503225536 24 15 6.4 17.7 0.00 0.03 0.03 35 1017.6
20260503225036 24 315 4.8 17.7 0.00 0.03 0.03 35 1017.6
20260503224551 24 329 9.7 17.7 0.00 0.03 0.03 33 1017.6
20260503224036 24 327 8.0 16.1 0.00 0.03 0.03 34 1017.6
20260503223536 24 19 4.8 11.3 0.00 0.03 0.03 34 1017.6
20260503223050 24 30 4.8 14.5 0.00 0.03 0.03 33 1017.6
20260503222535 24 24 6.4 16.1 0.00 0.03 0.03 33 1017.5
20260503222032 24 344 6.4 17.7 0.00 0.03 0.03 34 1017.5
20260503221557 25 350 8.0 17.7 0.00 0.03 0.03 34 1017.5
20260503221036 25 347 6.4 14.5 0.00 0.03 0.03 34 1017.4
20260503220537 25 310 4.8 17.7 0.00 0.03 0.03 32 1017.4
20260503215537 25 331 6.4 16.1 0.00 0.03 0.03 34 1017.5
20260503215036 25 334 8.0 19.3 0.00 0.03 0.03 33 1017.6
20260503214546 25 324 8.0 19.3 0.00 0.03 0.03 34 1017.7
20260503214036 25 335 6.4 16.1 0.00 0.03 0.03 34 1017.7
20260503213539 25 321 6.4 14.5 0.00 0.03 0.03 33 1017.7
20260503213049 25 355 4.8 14.5 0.00 0.03 0.03 34 1017.8
20260503212536 25 92 4.8 14.5 0.00 0.03 0.03 32 1017.8
20260503212036 25 331 8.0 14.5 0.00 0.03 0.03 33 1017.9
20260503211547 25 317 6.4 14.5 0.00 0.03 0.03 33 1017.9
20260503211034 24 5 6.4 16.1 0.00 0.03 0.03 34 1018.1
20260503210537 24 40 6.4 19.3 0.00 0.03 0.03 34 1018.1
20260503210055 24 0 4.8 19.3 0.00 0.03 0.03 34 1018.2
20260503205536 25 334 9.7 20.9 0.00 0.03 0.03 34 1018.2
20260503205037 25 293 9.7 20.9 0.00 0.03 0.03 35 1018.2
20260503204558 25 299 8.0 16.1 0.00 0.03 0.03 36 1018.3
20260503204037 25 0 8.0 20.9 0.00 0.03 0.03 33 1018.5
20260503203536 24 274 8.0 20.9 0.00 0.03 0.03 35 1018.6
20260503203049 25 5 6.4 20.9 0.00 0.03 0.03 33 1018.7
20260503202536 24 355 11.3 20.9 0.00 0.03 0.03 35 1018.8
20260503202036 24 281 6.4 17.7 0.00 0.03 0.03 36 1018.7
20260503201546 24 313 6.4 14.5 0.00 0.03 0.03 35 1018.8
20260503201035 24 30 6.4 20.9 0.00 0.03 0.03 34 1018.8
20260503200536 24 338 12.9 20.9 0.00 0.03 0.03 33 1018.9
20260503200047 24 340 8.0 16.1 0.00 0.03 0.03 35 1019.0
20260503195536 24 275 4.8 16.1 0.00 0.03 0.03 34 1019.1
20260503195032 24 98 8.0 17.7 0.00 0.03 0.03 33 1019.2
20260503194550 24 27 4.8 17.7 0.00 0.03 0.03 34 1019.4
20260503194036 24 5 8.0 17.7 0.00 0.03 0.03 35 1019.4
20260503193535 24 302 6.4 19.3 0.00 0.03 0.03 33 1019.6
20260503193043 23 15 8.0 19.3 0.00 0.03 0.03 35 1019.6
20260503192534 24 15 11.3 19.3 0.00 0.03 0.03 33 1019.8
20260503192034 24 22 6.4 19.3 0.00 0.03 0.03 33 1019.8
20260503191543 24 309 8.0 17.7 0.00 0.03 0.03 32 1019.7
20260503191034 23 23 6.4 17.7 0.00 0.03 0.03 33 1019.8
20260503190533 23 327 9.7 17.7 0.00 0.03 0.03 34 1020.0
20260503190057 23 344 9.7 16.1 0.00 0.03 0.03 34 1020.1
20260503185534 23 302 6.4 14.5 0.00 0.03 0.03 35 1020.1
20260503185032 23 283 3.2 12.9 0.00 0.03 0.03 36 1020.3
20260503184551 23 0 3.2 17.7 0.00 0.03 0.03 35 1020.3
20260503184034 23 41 6.4 22.5 0.03 0.03 0.03 33 1020.4
20260503183532 23 12 6.4 22.5 0.03 0.03 0.03 38 1020.4
20260503183059 23 331 4.8 16.1 0.03 0.03 0.03 36 1020.5
20260503182534 23 360 6.4 17.7 0.03 0.03 0.03 37 1020.7
20260503182032 23 313 11.3 17.7 0.03 0.03 0.03 34 1020.7
20260503181547 23 0 0.0 9.7 0.03 0.03 0.03 37 1020.7
20260503181032 23 0 0.0 22.5 0.03 0.03 0.03 36 1020.7
20260503180532 23 94 3.2 22.5 0.03 0.03 0.03 38 1020.6
20260503180059 22 292 11.3 22.5 0.03 0.03 0.03 36 1020.7
20260503175535 22 339 12.9 19.3 0.03 0.03 0.03 34 1020.7
20260503175032 22 349 3.2 19.3 0.03 0.03 0.03 38 1020.8
20260503174547 23 26 6.4 19.3 0.03 0.03 0.03 37 1020.8
20260503174034 25 294 9.7 19.3 0.00 0.00 0.00 31 1020.8
20260503173533 30 327 4.8 14.5 0.00 0.00 0.00 26 1020.8
20260503173120 28 0 4.8 19.3 0.00 0.00 0.00 25 1020.8
20260503172533 27 46 8.0 19.3 0.00 0.00 0.00 27 1020.8
20260503172031 28 345 8.0 19.3 0.00 0.00 0.00 27 1020.9
20260503171547 29 355 6.4 16.1 0.00 0.00 0.00 26 1020.9
20260503171036 30 76 8.0 20.9 0.00 0.00 0.00 26 1020.8
20260503170535 22 46 11.3 20.9 0.00 0.00 0.00 36 1021.2
20260503150534 20 34 8.0 16.1 0.00 0.00 0.00 44 1022.1
20260503131035 16 24 3.2 8.0 0.00 0.00 0.00 65 1021.3
20260503130536 15 355 4.8 8.0 0.00 0.00 0.00 66 1021.2
20260503110534 7 345 0.0 3.2 0.00 0.00 0.00 94 1020.3
20260503081555 8 0 0.0 0.0 0.00 0.64 0.00 85 1019.2
20260503081033 9 0 0.0 1.6 0.00 0.64 0.00 85 1019.1
20260503080533 9 0 0.0 1.6 0.00 0.64 0.00 85 1019.1
20260503072535 8 0 0.0 3.2 0.00 1.19 0.00 89 1018.7
20260503072034 8 0 0.0 0.0 0.00 1.19 0.00 90 1018.8
20260503071546 8 0 0.0 0.0 0.00 1.19 0.00 90 1018.8
20260503071033 8 0 0.0 0.0 0.00 1.19 0.00 90 1018.8
20260503070535 8 0 0.0 0.0 0.00 1.19 0.00 90 1018.9
20260503055034 9 0 0.0 0.0 0.00 1.91 0.00 88 1018.7
20260503054546 9 0 0.0 0.0 0.00 1.91 0.00 88 1018.6
20260503054035 9 0 0.0 0.0 0.00 1.91 0.00 87 1018.6
20260503053535 9 0 0.0 0.0 0.00 1.91 0.00 86 1018.7
20260503053046 9 0 0.0 0.0 0.00 1.91 0.00 87 1018.6
20260503052535 10 0 0.0 0.0 0.00 1.91 0.00 86 1018.6
20260503052035 10 0 0.0 0.0 0.00 1.91 0.00 86 1018.7
20260503051544 10 0 0.0 0.0 0.00 1.91 0.00 87 1018.5
20260503051035 10 0 0.0 0.0 0.00 1.91 0.00 87 1018.5
20260503050535 10 0 0.0 0.0 0.00 1.91 0.00 88 1018.5
20260503050050 10 0 0.0 0.0 0.00 1.91 0.00 88 1018.5
20260503045534 10 0 0.0 0.0 0.00 1.91 1.91 88 1018.4
20260503045035 10 0 0.0 0.0 0.00 1.91 1.91 89 1018.2
20260503044548 10 0 0.0 0.0 0.00 1.91 1.91 89 1018.3
20260503044033 10 0 0.0 0.0 0.00 1.91 1.91 89 1018.3
20260503043532 10 0 0.0 0.0 0.00 1.91 1.91 89 1018.3
20260503043047 10 0 0.0 0.0 0.00 1.91 1.91 89 1018.4
20260503042531 10 0 0.0 1.6 0.00 1.91 1.91 88 1018.6
20260503042035 10 0 0.0 1.6 0.00 1.91 1.91 88 1018.6
20260503041545 10 0 0.0 0.0 0.00 1.91 1.91 86 1018.5
20260503041035 10 0 0.0 0.0 0.00 1.91 1.91 86 1018.5
20260503040534 10 0 0.0 0.0 0.00 1.91 1.91 86 1018.4
20260503040044 10 0 0.0 0.0 0.00 1.91 1.91 84 1018.5
20260503035535 10 0 0.0 0.0 0.00 2.41 1.91 83 1018.4
20260503035036 11 0 0.0 0.0 0.00 2.41 1.91 84 1018.4
20260503034548 11 0 0.0 0.0 0.00 2.41 1.91 84 1018.3
20260503034031 11 0 0.0 0.0 0.00 2.41 1.91 83 1018.3
20260503033531 11 0 0.0 0.0 0.00 2.41 1.91 82 1018.1
20260503033041 11 0 0.0 0.0 0.00 2.41 1.91 82 1018.1
20260503032532 11 0 0.0 0.0 0.00 2.41 1.91 81 1018.0
20260503032033 11 0 0.0 0.0 0.00 2.41 1.91 80 1018.0
20260503031556 11 0 0.0 1.6 0.00 2.41 1.91 79 1018.0
20260503031034 11 0 0.0 1.6 0.00 2.41 1.91 78 1017.9
20260503030533 12 0 0.0 0.0 0.00 2.41 1.91 77 1017.8
20260503030047 12 0 0.0 1.6 0.00 2.41 1.91 77 1017.9
20260503025534 12 0 0.0 4.8 0.00 2.95 1.91 77 1017.8
20260503025033 12 0 0.0 4.8 0.00 2.95 1.91 76 1017.8
20260503024547 12 0 0.0 4.8 0.00 2.95 1.91 75 1017.7
20260503024033 12 0 0.0 0.0 0.00 2.95 1.91 75 1017.8
20260503023534 12 0 0.0 0.0 0.00 2.95 1.91 75 1017.6
20260503023050 12 0 0.0 0.0 0.00 2.95 1.91 75 1017.5
20260503022534 12 0 0.0 0.0 0.00 2.95 1.91 73 1017.5
20260503022032 13 0 0.0 0.0 0.00 2.95 1.91 71 1017.4
20260503021548 13 0 0.0 0.0 0.00 2.95 1.91 71 1017.3
20260503021033 13 0 0.0 0.0 0.00 2.95 1.91 70 1017.2
20260503020533 14 0 0.0 0.0 0.00 2.95 1.91 69 1017.1
20260503020056 15 0 0.0 0.0 0.00 2.95 1.91 69 1017.1
20260503015534 15 0 0.0 0.0 0.00 3.38 1.91 68 1017.0
20260503015033 15 0 0.0 0.0 0.00 3.38 1.91 64 1016.8
20260503014553 16 0 0.0 0.0 0.00 3.38 1.91 60 1016.8
20260503014033 16 0 0.0 0.0 0.00 3.38 1.91 59 1016.8
20260503013533 16 0 0.0 0.0 0.00 3.38 1.91 57 1016.7
20260503013050 16 0 0.0 0.0 0.00 3.38 1.91 55 1016.7
20260503012535 17 0 0.0 3.2 0.00 3.38 1.91 54 1016.6
20260503012033 17 0 0.0 3.2 0.00 3.38 1.91 53 1016.5
20260503011603 17 0 0.0 4.8 0.00 3.38 1.91 53 1016.4
20260503011032 17 0 0.0 6.4 0.00 3.38 1.91 52 1016.4
20260503010533 17 13 1.6 9.7 0.00 3.38 1.91 51 1016.4
20260503010047 17 338 3.2 12.9 0.00 3.38 1.91 51 1016.3
20260503005533 18 340 3.2 12.9 0.00 3.51 1.91 50 1016.2
20260503005034 18 355 3.2 9.7 0.00 3.51 1.91 50 1016.1
20260503004545 18 347 3.2 12.9 0.00 3.51 1.91 49 1016.0
20260503004033 18 360 4.8 16.1 0.00 3.51 1.91 49 1015.9
20260503003535 18 347 4.8 16.1 0.00 3.51 1.91 48 1015.8
20260503003104 18 348 6.4 14.5 0.00 3.51 1.91 47 1015.7
20260503002534 19 355 6.4 14.5 0.00 3.51 1.91 47 1015.6
20260503002033 19 5 4.8 16.1 0.00 3.51 1.91 47 1015.5
20260503001546 19 355 4.8 16.1 0.00 3.51 1.91 46 1015.5
20260503001033 20 343 4.8 19.3 0.00 3.51 1.91 45 1015.4
20260503000533 20 32 4.8 19.3 0.00 3.51 1.91 45 1015.4